Weather in Cəlilabad

Azerbaijan     39°12′37″N   48°30′23″E
temp.,
°C
wind,
m/s
gust,
m/s
humid.,
%
clouds,
%
prec.,
mm/h
press.,
hPa
HPBL,
m
21 april, wed
wed2101:00+18sw226518 0.0 101112
04:00+19wnw225625 0.0 101124
07:00+20wnw47610 0.0 1012130
10:00+27nw344467 0.0 1012515
13:00+30ese443867 0.0 10111087
16:00+23se10125873 0.0 1012687
19:00+17sse6117585 0.0 1015531
22:00+15se7128496 0.1 1017447
22 april, thu
thu2201:00+15sse71179100 0.0 1018383
04:00+13se7118368 0.0 1019481
07:00+14se5982100 0.0 1019565
10:00+18se6866100 0.0 1020777
13:00+21ese6756100 0.0 1018982
16:00+19ese8961100 0.1 1016943
19:00+15ese3678100 0.1 1019392
22:00+13s4785100 0.3 1019241
23 april, fri
fri2301:00+13sse598125 0.2 1017356
04:00+13sse61180100 0.3 1017479
07:00+13sse4880100 0.0 1018382
10:00+17se33610 0.0 1019718
13:00+21ese325341 0.0 10191371
16:00+17se897298 0.0 1020504
19:00+14se9127414 0.0 1022699
22:00+13se813765 0.0 1024618
24 april, sat
sat2401:00+11sse498794 0.0 1023261
04:00+11sse4108764 0.0 1021211
07:00+11se26860 0.0 1020182
10:00+18se33620 0.0 1019804
13:00+22ese235343 0.0 10171370
16:00+22ese535613 0.0 1016809
19:00+15se57785 0.0 1017250
22:00+12sse36920 0.0 1019141
25 april, sun
sun2501:00+11ese22940 0.0 101925
04:00+11sse22940 0.0 101923
07:00+13se23890 0.0 101987
10:00+19se44610 0.0 1018653
13:00+22se55520 0.0 1015909
16:00+22se66540 0.0 1013682
19:00+16se57750 0.0 1012230
22:00+12se23930 0.0 101365